When you browse on this site, cookies collect data to enhance your experience and personalize the content and advertising you see.
Visit our Privacy Policy to learn more. By continuing to use the site, you agree to this use of cookies and data.
  • In United Kingdom
  • List of Countries
  • For 7 days
  • Water Temperature
  • Weather Map
  • Weather Widgets
  • user-avatar
    Login

    Hourly Weather Labé

    Today, 28 May, Thursday

    Time Temperature Precipitation Wind Pressure Humidity
    00:00 +23°C° 0 mm 1 mps 673 mmHg 82%
    01:00 +21°C° 0 mm 0 mps 673 mmHg 82%
    02:00 +21°C° 0 mm 0 mps 672 mmHg 82%
    03:00 +21°C° 0 mm 0 mps 672 mmHg 84%
    04:00 +20°C° 0 mm 0 mps 672 mmHg 86%
    05:00 +22°C° 0 mm 1 mps 672 mmHg 89%
    06:00 +21°C° 0.1 mm 0 mps 673 mmHg 83%
    07:00 +23°C° 0.1 mm 0 mps 673 mmHg 77%
    08:00 +25°C° 0.1 mm 0 mps 674 mmHg 70%
    09:00 +28°C° 0.2 mm 1 mps 674 mmHg 62%
    10:00 +30°C° 0.2 mm 2 mps 675 mmHg 53%
    11:00 +32°C° 0.2 mm 2 mps 675 mmHg 44%
    12:00 +32°C° 0.1 mm 2 mps 674 mmHg 44%
    13:00 +32°C° 0.1 mm 2 mps 673 mmHg 44%
    14:00 +32°C° 0.1 mm 1 mps 673 mmHg 43%
    15:00 +31°C° 0 mm 1 mps 672 mmHg 48%
    16:00 +30°C° 0 mm 1 mps 672 mmHg 52%
    17:00 +29°C° 0 mm 1 mps 671 mmHg 57%
    18:00 +27°C° 0.5 mm 1 mps 672 mmHg 62%
    19:00 +26°C° 0.5 mm 1 mps 672 mmHg 68%
    20:00 +25°C° 0.5 mm 1 mps 672 mmHg 74%
    21:00 +25°C° 0.2 mm 1 mps 672 mmHg 74%
    22:00 +24°C° 0.2 mm 1 mps 673 mmHg 74%
    23:00 +24°C° 0.2 mm 1 mps 673 mmHg 74%

    Tomorrow, 29 May, Friday

    Time Temperature Precipitation Wind Pressure Humidity
    00:00 +24°C° 0 mm 1 mps 672 mmHg 76%
    01:00 +24°C° 0 mm 1 mps 672 mmHg 78%
    02:00 +23°C° 0 mm 1 mps 672 mmHg 80%
    03:00 +23°C° 0.1 mm 1 mps 672 mmHg 83%
    04:00 +22°C° 0.1 mm 1 mps 672 mmHg 85%
    05:00 +22°C° 0.1 mm 1 mps 672 mmHg 88%
    06:00 +23°C° 0.6 mm 1 mps 672 mmHg 82%
    07:00 +25°C° 0.6 mm 1 mps 673 mmHg 76%
    08:00 +27°C° 0.6 mm 1 mps 674 mmHg 69%
    09:00 +29°C° 0.1 mm 1 mps 674 mmHg 61%
    10:00 +30°C° 0.1 mm 1 mps 674 mmHg 53%
    11:00 +32°C° 0.1 mm 1 mps 674 mmHg 45%
    12:00 +32°C° 0.3 mm 1 mps 673 mmHg 44%
    13:00 +33°C° 0.3 mm 1 mps 673 mmHg 43%
    14:00 +33°C° 0.3 mm 1 mps 672 mmHg 43%
    15:00 +31°C° 0 mm 1 mps 671 mmHg 47%
    16:00 +30°C° 0 mm 1 mps 671 mmHg 52%
    17:00 +29°C° 0 mm 1 mps 670 mmHg 56%
    18:00 +28°C° 0 mm 1 mps 671 mmHg 60%
    19:00 +27°C° 0 mm 1 mps 671 mmHg 64%
    20:00 +26°C° 0 mm 1 mps 671 mmHg 67%
    21:00 +26°C° 0.1 mm 1 mps 671 mmHg 70%
    22:00 +25°C° 0.1 mm 1 mps 672 mmHg 73%
    23:00 +25°C° 0.1 mm 1 mps 672 mmHg 76%

    Day after tomorrow, 30 May, Saturday

    Time Temperature Precipitation Wind Pressure Humidity
    00:00 +24°C° 0.3 mm 1 mps 672 mmHg 80%
    01:00 +23°C° 0.3 mm 1 mps 671 mmHg 84%
    02:00 +23°C° 0.3 mm 1 mps 671 mmHg 88%
    03:00 +22°C° 0.3 mm 1 mps 671 mmHg 90%
    04:00 +22°C° 0.3 mm 1 mps 671 mmHg 91%
    05:00 +22°C° 0.3 mm 1 mps 671 mmHg 93%
    06:00 +23°C° 0.2 mm 1 mps 672 mmHg 86%
    07:00 +24°C° 0.2 mm 1 mps 672 mmHg 83%
    08:00 +25°C° 0.2 mm 1 mps 673 mmHg 80%
    09:00 +27°C° 0.9 mm 1 mps 673 mmHg 72%
    10:00 +29°C° 0.9 mm 1 mps 673 mmHg 63%
    11:00 +31°C° 0.9 mm 1 mps 674 mmHg 55%
    12:00 +30°C° 1.3 mm 1 mps 673 mmHg 58%
    13:00 +29°C° 1.3 mm 1 mps 672 mmHg 61%
    14:00 +28°C° 1.3 mm 1 mps 671 mmHg 64%
    15:00 +26°C° 5.3 mm 2 mps 671 mmHg 73%
    16:00 +24°C° 5.3 mm 3 mps 670 mmHg 82%
    17:00 +21°C° 5.3 mm 3 mps 670 mmHg 91%
    18:00 +21°C° 1.9 mm 3 mps 670 mmHg 92%
    19:00 +20°C° 1.9 mm 2 mps 671 mmHg 93%
    20:00 +21°C° 1.9 mm 1 mps 672 mmHg 94%
    21:00 +21°C° 0.3 mm 1 mps 672 mmHg 93%
    22:00 +21°C° 0.3 mm 1 mps 672 mmHg 92%
    23:00 +19°C° 0.3 mm 0 mps 672 mmHg 91%

    31 May, Sunday

    Time Temperature Precipitation Wind Pressure Humidity
    00:00 +19°C° 0 mm 0 mps 672 mmHg 90%
    01:00 +20°C° 0 mm 0 mps 672 mmHg 88%
    02:00 +20°C° 0 mm 0 mps 671 mmHg 86%
    03:00 +20°C° 0 mm 0 mps 671 mmHg 86%
    04:00 +20°C° 0 mm 0 mps 672 mmHg 85%
    05:00 +19°C° 0 mm 0 mps 672 mmHg 85%
    06:00 +21°C° 0 mm 0 mps 672 mmHg 81%
    07:00 +22°C° 0 mm 0 mps 673 mmHg 78%
    08:00 +23°C° 0 mm 0 mps 674 mmHg 74%
    09:00 +27°C° 0.1 mm 1 mps 674 mmHg 67%
    10:00 +29°C° 0.1 mm 1 mps 675 mmHg 61%
    11:00 +31°C° 0.1 mm 1 mps 675 mmHg 54%
    12:00 +30°C° 0.9 mm 1 mps 674 mmHg 56%
    13:00 +28°C° 0.9 mm 0 mps 674 mmHg 59%
    14:00 +27°C° 0.9 mm 0 mps 673 mmHg 62%
    15:00 +27°C° 0.8 mm 0 mps 673 mmHg 65%
    16:00 +26°C° 0.8 mm 0 mps 673 mmHg 68%
    17:00 +25°C° 0.8 mm 0 mps 672 mmHg 71%
    18:00 +24°C° 0.5 mm 0 mps 673 mmHg 74%
    19:00 +23°C° 0.5 mm 0 mps 673 mmHg 76%
    20:00 +22°C° 0.5 mm 0 mps 673 mmHg 79%
    21:00 +22°C° 0.5 mm 0 mps 673 mmHg 81%
    22:00 +23°C° 0.5 mm 1 mps 673 mmHg 82%
    23:00 +23°C° 0.5 mm 1 mps 673 mmHg 84%

    1 June, Monday

    Time Temperature Precipitation Wind Pressure Humidity
    00:00 +23°C° 0.6 mm 1 mps 673 mmHg 85%
    01:00 +21°C° 0.6 mm 0 mps 673 mmHg 87%
    02:00 +21°C° 0.6 mm 0 mps 673 mmHg 88%
    03:00 +20°C° 0.8 mm 0 mps 673 mmHg 88%
    04:00 +20°C° 0.8 mm 0 mps 673 mmHg 88%
    05:00 +20°C° 0.8 mm 0 mps 673 mmHg 89%
    06:00 +21°C° 0.1 mm 0 mps 673 mmHg 86%
    07:00 +22°C° 0.1 mm 0 mps 674 mmHg 84%
    08:00 +22°C° 0.1 mm 0 mps 675 mmHg 82%
    09:00 +26°C° 0.6 mm 1 mps 675 mmHg 74%
    10:00 +28°C° 0.6 mm 2 mps 675 mmHg 67%
    11:00 +29°C° 0.6 mm 2 mps 675 mmHg 60%
    12:00 +29°C° 1.7 mm 2 mps 674 mmHg 60%
    13:00 +30°C° 1.7 mm 2 mps 674 mmHg 60%
    14:00 +30°C° 1.7 mm 2 mps 673 mmHg 60%
    15:00 +29°C° 0.9 mm 1 mps 673 mmHg 64%
    16:00 +28°C° 0.9 mm 1 mps 672 mmHg 68%
    17:00 +27°C° 0.9 mm 1 mps 672 mmHg 72%
    18:00 +26°C° 0.3 mm 1 mps 672 mmHg 75%
    19:00 +25°C° 0.3 mm 1 mps 673 mmHg 77%
    20:00 +24°C° 0.3 mm 1 mps 673 mmHg 80%
    21:00 +24°C° 0.3 mm 1 mps 673 mmHg 80%
    22:00 +24°C° 0.3 mm 1 mps 673 mmHg 81%
    23:00 +23°C° 0.3 mm 1 mps 674 mmHg 81%

    2 June, Tuesday

    Time Temperature Precipitation Wind Pressure Humidity
    00:00 +23°C° 0.1 mm 1 mps 673 mmHg 83%
    01:00 +23°C° 0.1 mm 1 mps 673 mmHg 84%
    02:00 +23°C° 0.1 mm 1 mps 672 mmHg 85%
    03:00 +22°C° 0.2 mm 1 mps 672 mmHg 88%
    04:00 +22°C° 0.2 mm 1 mps 673 mmHg 90%
    05:00 +22°C° 0.2 mm 1 mps 673 mmHg 92%
    06:00 +22°C° 0.8 mm 1 mps 673 mmHg 90%
    07:00 +23°C° 0.8 mm 2 mps 674 mmHg 88%
    08:00 +23°C° 0.8 mm 2 mps 674 mmHg 86%
    09:00 +24°C° 0 mm 2 mps 674 mmHg 80%
    10:00 +25°C° 0 mm 2 mps 674 mmHg 75%
    11:00 +26°C° 0 mm 1 mps 674 mmHg 69%
    12:00 +28°C° 0 mm 1 mps 674 mmHg 62%
    13:00 +29°C° 0 mm 2 mps 673 mmHg 55%
    14:00 +30°C° 0 mm 2 mps 673 mmHg 47%
    15:00 +30°C° 0 mm 1 mps 672 mmHg 51%
    16:00 +29°C° 0 mm 1 mps 672 mmHg 54%
    17:00 +28°C° 0 mm 1 mps 672 mmHg 58%
    18:00 +27°C° 0 mm 1 mps 672 mmHg 62%
    19:00 +26°C° 0 mm 1 mps 672 mmHg 66%
    20:00 +24°C° 0 mm 1 mps 672 mmHg 71%
    21:00 +24°C° 0 mm 1 mps 672 mmHg 74%
    22:00 +23°C° 0 mm 1 mps 672 mmHg 78%
    23:00 +23°C° 0 mm 1 mps 672 mmHg 82%
    Show more